SPZNA EPRZ-EPRZ

Flight info

Callsign SPZNA
Flight time 0h 23m
Altitude 1500
Route DCT
Aircraft PA24/L-SDGRY/S

Departure

Time 2026-04-26 18:33
Airport Rzeszów-Jasionka Airport (EPRZ)

Arrival

Time 2026-04-26 18:57
Airport Rzeszów-Jasionka Airport (EPRZ)
Time Latitude Longitude Altitude Speed Heading
2026-04-26 18:12 50.11225 22.02893 693 ft 0 kts 91°
2026-04-26 18:15 50.11225 22.02892 693 ft 0 kts 91°
2026-04-26 18:18 50.11225 22.02891 693 ft 0 kts 91°
2026-04-26 18:22 50.11225 22.02890 693 ft 0 kts 91°
2026-04-26 18:25 50.11225 22.02889 693 ft 0 kts 91°
2026-04-26 18:27 50.11201 22.02880 693 ft 12 kts 263°
2026-04-26 18:28 50.11167 22.02767 693 ft 8 kts 206°
2026-04-26 18:28 50.11081 22.02740 694 ft 7 kts 177°
2026-04-26 18:28 50.11079 22.02740 694 ft 0 kts 181°
2026-04-26 18:30 50.11029 22.02740 694 ft 9 kts 180°
2026-04-26 18:31 50.10991 22.02722 693 ft 6 kts 255°
2026-04-26 18:31 50.10989 22.02698 694 ft 0 kts 272°
2026-04-26 18:32 50.10990 22.02696 694 ft 2 kts 272°
2026-04-26 18:33 50.10994 22.02280 699 ft 77 kts 274°
2026-04-26 18:33 50.10998 22.01332 916 ft 97 kts 275°
2026-04-26 18:33 50.11034 22.00181 1178 ft 110 kts 276°
2026-04-26 18:33 50.11059 21.99021 1534 ft 103 kts 275°
2026-04-26 18:34 50.10929 21.98008 1854 ft 101 kts 232°
2026-04-26 18:34 50.10137 21.97729 1794 ft 141 kts 191°
2026-04-26 18:34 50.09102 21.97523 1726 ft 149 kts 188°
2026-04-26 18:34 50.08356 21.98345 1716 ft 138 kts 106°
2026-04-26 18:35 50.08265 21.99775 1718 ft 129 kts 89°
2026-04-26 18:35 50.08190 22.01131 1792 ft 125 kts 89°
2026-04-26 18:35 50.08145 22.02548 1650 ft 133 kts 85°
2026-04-26 18:35 50.08130 22.03959 1580 ft 126 kts 84°
2026-04-26 18:36 50.08141 22.05261 1593 ft 117 kts 83°
2026-04-26 18:36 50.08150 22.06541 1543 ft 118 kts 84°
2026-04-26 18:36 50.08155 22.07797 1571 ft 113 kts 85°
2026-04-26 18:36 50.08147 22.09022 1543 ft 115 kts 84°
2026-04-26 18:37 50.08148 22.10268 1510 ft 116 kts 85°
2026-04-26 18:37 50.08156 22.11515 1497 ft 114 kts 84°
2026-04-26 18:37 50.08165 22.12752 1488 ft 115 kts 84°
2026-04-26 18:37 50.08171 22.14003 1485 ft 115 kts 84°
2026-04-26 18:38 50.08168 22.15256 1455 ft 116 kts 86°
2026-04-26 18:38 50.08151 22.16508 1437 ft 115 kts 87°
2026-04-26 18:38 50.08127 22.17758 1447 ft 115 kts 88°
2026-04-26 18:38 50.08100 22.18979 1493 ft 112 kts 85°
2026-04-26 18:39 50.08535 22.19891 1437 ft 110 kts
2026-04-26 18:39 50.09242 22.19885 1518 ft 92 kts 354°
2026-04-26 18:39 50.09837 22.19872 1584 ft 82 kts 353°
2026-04-26 18:39 50.10415 22.19784 1589 ft 81 kts 338°
2026-04-26 18:40 50.10778 22.19161 1549 ft 87 kts 288°
2026-04-26 18:40 50.10798 22.18223 1559 ft 88 kts 274°
2026-04-26 18:40 50.10780 22.17251 1533 ft 91 kts 276°
2026-04-26 18:40 50.10796 22.16256 1512 ft 92 kts 277°
2026-04-26 18:41 50.10831 22.15263 1505 ft 91 kts 274°
2026-04-26 18:41 50.10833 22.14273 1512 ft 92 kts 273°
2026-04-26 18:41 50.10830 22.13247 1495 ft 95 kts 273°
2026-04-26 18:41 50.10815 22.12239 1501 ft 93 kts 275°
2026-04-26 18:42 50.10829 22.11236 1407 ft 89 kts 277°
2026-04-26 18:42 50.10864 22.10286 1259 ft 87 kts 277°
2026-04-26 18:42 50.10894 22.09366 1142 ft 83 kts 276°
2026-04-26 18:42 50.10911 22.08502 1076 ft 78 kts 274°
2026-04-26 18:43 50.10934 22.07660 1030 ft 77 kts 271°
2026-04-26 18:43 50.10937 22.06800 947 ft 81 kts 271°
2026-04-26 18:43 50.10939 22.05941 860 ft 75 kts 273°
2026-04-26 18:43 50.10949 22.05154 779 ft 71 kts 274°
2026-04-26 18:44 50.10960 22.04651 729 ft 71 kts 275°
2026-04-26 18:44 50.10976 22.03760 688 ft 73 kts 272°
2026-04-26 18:44 50.10993 22.02817 867 ft 96 kts 274°
2026-04-26 18:44 50.11007 22.01770 1172 ft 94 kts 272°
2026-04-26 18:45 50.11010 22.00761 1360 ft 94 kts 271°
2026-04-26 18:45 50.10997 22.00083 1426 ft 95 kts 270°
2026-04-26 18:45 50.10944 21.99051 1541 ft 94 kts 268°
2026-04-26 18:45 50.10766 21.98073 1630 ft 99 kts 236°
2026-04-26 18:46 50.10068 21.97787 1613 ft 117 kts 176°
2026-04-26 18:46 50.09272 21.97956 1694 ft 115 kts 175°
2026-04-26 18:46 50.08507 21.98250 1633 ft 116 kts 143°
2026-04-26 18:46 50.08297 21.99384 1579 ft 109 kts 81°
2026-04-26 18:47 50.08354 22.00536 1620 ft 105 kts 79°
2026-04-26 18:47 50.08419 22.01682 1543 ft 110 kts 77°
2026-04-26 18:47 50.08490 22.02863 1518 ft 109 kts 80°
2026-04-26 18:47 50.08529 22.04001 1554 ft 102 kts 81°
2026-04-26 18:48 50.08562 22.05124 1447 ft 112 kts 83°
2026-04-26 18:48 50.08574 22.06350 1425 ft 110 kts 86°
2026-04-26 18:48 50.08561 22.07556 1369 ft 113 kts 86°
2026-04-26 18:48 50.08661 22.08710 1450 ft 101 kts 50°
2026-04-26 18:49 50.09245 22.09047 1476 ft 90 kts 350°
2026-04-26 18:49 50.09874 22.08973 1438 ft 91 kts 351°
2026-04-26 18:49 50.10459 22.08741 1438 ft 92 kts 308°
2026-04-26 18:49 50.10751 22.07815 1286 ft 96 kts 292°
2026-04-26 18:50 50.10907 22.06790 1094 ft 99 kts 277°
2026-04-26 18:50 50.10932 22.05716 948 ft 98 kts 272°
2026-04-26 18:50 50.10954 22.04648 779 ft 99 kts 274°
2026-04-26 18:50 50.10971 22.03628 711 ft 87 kts 273°
2026-04-26 18:51 50.10985 22.02753 714 ft 77 kts 274°
2026-04-26 18:51 50.10997 22.01936 743 ft 82 kts 273°
2026-04-26 18:51 50.11009 22.00896 899 ft 106 kts 274°
2026-04-26 18:51 50.11025 21.99701 1182 ft 109 kts 261°
2026-04-26 18:52 50.10417 21.99214 1334 ft 119 kts 170°
2026-04-26 18:52 50.09609 21.99486 1468 ft 118 kts 170°
2026-04-26 18:52 50.08846 21.99909 1451 ft 119 kts 135°
2026-04-26 18:52 50.08698 22.01152 1361 ft 122 kts 78°
2026-04-26 18:53 50.08809 22.02400 1395 ft 114 kts 77°
2026-04-26 18:53 50.08922 22.03610 1401 ft 112 kts 77°
2026-04-26 18:53 50.09031 22.04814 1383 ft 113 kts 78°
2026-04-26 18:53 50.09131 22.06013 1404 ft 111 kts 78°
2026-04-26 18:54 50.09220 22.07202 1414 ft 110 kts 79°
2026-04-26 18:54 50.09291 22.08400 1417 ft 112 kts 81°
2026-04-26 18:54 50.09355 22.09594 1440 ft 111 kts 81°
2026-04-26 18:54 50.09438 22.10788 1459 ft 113 kts 64°
2026-04-26 18:55 50.10085 22.11277 1413 ft 108 kts 344°
2026-04-26 18:55 50.10629 22.10695 1494 ft 86 kts 303°
2026-04-26 18:55 50.10824 22.09858 1418 ft 81 kts 284°
2026-04-26 18:55 50.10897 22.08973 1268 ft 84 kts 277°
2026-04-26 18:56 50.10908 22.08067 1151 ft 81 kts 274°
2026-04-26 18:56 50.10927 22.07222 1041 ft 72 kts 272°
2026-04-26 18:56 50.10934 22.06454 935 ft 70 kts 271°
2026-04-26 18:56 50.10945 22.05700 832 ft 69 kts 274°
2026-04-26 18:57 50.10958 22.04981 744 ft 60 kts 275°
2026-04-26 18:57 50.10964 22.04615 690 ft 42 kts 276°
2026-04-26 18:57 50.10969 22.04408 684 ft 0 kts 270°
2026-04-26 19:00 50.10969 22.04409 686 ft 0 kts 270°
2026-04-26 19:04 50.10969 22.04410 686 ft 0 kts 270°
2026-04-26 19:04 50.10971 22.03937 701 ft 79 kts 273°
2026-04-26 19:05 50.10991 22.01860 1214 ft 106 kts 273°
2026-04-26 19:05 50.11010 22.00714 1474 ft 103 kts 273°
2026-04-26 19:05 50.10987 21.99607 1633 ft 109 kts 263°
2026-04-26 19:06 50.10391 21.98983 1500 ft 122 kts 179°
2026-04-26 19:06 50.09580 21.99333 1508 ft 118 kts 165°
2026-04-26 19:06 50.08793 21.99640 1532 ft 117 kts 168°
2026-04-26 19:06 50.08321 22.00536 1500 ft 115 kts 86°
2026-04-26 19:07 50.08485 22.01730 1512 ft 108 kts 73°
2026-04-26 19:07 50.08637 22.02880 1482 ft 110 kts 74°
2026-04-26 19:07 50.08776 22.04051 1493 ft 109 kts 75°
2026-04-26 19:07 50.08916 22.05213 1488 ft 110 kts 75°
2026-04-26 19:08 50.09053 22.06378 1493 ft 108 kts 75°
2026-04-26 19:08 50.09147 22.07554 1479 ft 111 kts 80°
2026-04-26 19:08 50.09204 22.08748 1494 ft 110 kts 83°
2026-04-26 19:08 50.09240 22.09933 1505 ft 111 kts 83°
2026-04-26 19:09 50.09276 22.11133 1534 ft 111 kts 73°
2026-04-26 19:09 50.09800 22.11883 1501 ft 107 kts
2026-04-26 19:09 50.10429 22.11512 1564 ft 95 kts 313°
2026-04-26 19:09 50.10709 22.10586 1507 ft 99 kts 286°
2026-04-26 19:10 50.10839 22.09498 1439 ft 102 kts 281°
2026-04-26 19:10 50.10900 22.08442 1356 ft 96 kts 275°
2026-04-26 19:10 50.10907 22.07420 1258 ft 93 kts 271°
2026-04-26 19:10 50.10926 22.06378 1082 ft 100 kts 274°
2026-04-26 19:11 50.10950 22.05264 872 ft 102 kts 272°
2026-04-26 19:11 50.10965 22.04190 724 ft 97 kts 271°
2026-04-26 19:11 50.10979 22.03226 724 ft 81 kts 272°
2026-04-26 19:11 50.10991 22.02325 765 ft 97 kts 271°
2026-04-26 19:12 50.11004 22.01141 915 ft 119 kts 272°
2026-04-26 19:12 50.11018 21.99849 1279 ft 112 kts 269°
2026-04-26 19:12 50.10581 21.99126 1422 ft 109 kts 191°
2026-04-26 19:12 50.09810 21.98999 1443 ft 110 kts 188°
2026-04-26 19:13 50.09050 21.98912 1460 ft 109 kts 187°
2026-04-26 19:13 50.08358 21.99256 1394 ft 115 kts 124°
2026-04-26 19:13 50.08222 22.00483 1421 ft 109 kts 92°
2026-04-26 19:13 50.08164 22.01655 1435 ft 112 kts 90°
2026-04-26 19:14 50.08108 22.02847 1516 ft 109 kts 89°
2026-04-26 19:14 50.08069 22.04037 1559 ft 111 kts 86°
2026-04-26 19:14 50.08047 22.05228 1637 ft 110 kts 89°
2026-04-26 19:14 50.08007 22.06022 1667 ft 113 kts 89°
2026-04-26 19:15 50.07919 22.07653 1717 ft 112 kts 88°
2026-04-26 19:15 50.07925 22.08850 1764 ft 110 kts 54°
2026-04-26 19:15 50.08562 22.09335 1720 ft 98 kts
2026-04-26 19:15 50.09166 22.09572 1712 ft 81 kts
2026-04-26 19:16 50.09720 22.09717 1605 ft 81 kts 356°
2026-04-26 19:16 50.10222 22.09517 1600 ft 76 kts 327°
2026-04-26 19:16 50.10634 22.08941 1590 ft 83 kts 304°
2026-04-26 19:16 50.10829 22.08110 1445 ft 83 kts 286°
2026-04-26 19:17 50.10922 22.07233 1196 ft 82 kts 277°
2026-04-26 19:17 50.10949 22.06390 1024 ft 72 kts 272°
2026-04-26 19:17 50.10955 22.05647 897 ft 69 kts 270°
2026-04-26 19:17 50.10960 22.04866 763 ft 75 kts 272°
2026-04-26 19:18 50.10972 22.04174 686 ft 49 kts 270°
2026-04-26 19:18 50.10980 22.03446 740 ft 88 kts 270°
2026-04-26 19:18 50.10977 22.02445 1056 ft 93 kts 272°
2026-04-26 19:18 50.11004 22.01409 1242 ft 100 kts 274°
2026-04-26 19:19 50.11006 22.00314 1424 ft 103 kts 256°
2026-04-26 19:19 50.10427 21.99772 1476 ft 111 kts 183°
2026-04-26 19:19 50.09667 21.99817 1572 ft 110 kts 180°
2026-04-26 19:19 50.08896 21.99904 1626 ft 114 kts 176°
2026-04-26 19:20 50.08276 22.00688 1522 ft 125 kts 111°
2026-04-26 19:20 50.08190 22.01554 1596 ft 117 kts 91°
2026-04-26 19:20 50.08108 22.03102 1740 ft 108 kts 88°
2026-04-26 19:20 50.08048 22.04326 1732 ft 115 kts 86°
2026-04-26 19:21 50.07997 22.05613 1720 ft 120 kts 87°
2026-04-26 19:21 50.07951 22.06893 1788 ft 118 kts 85°
2026-04-26 19:21 50.07928 22.08203 1632 ft 132 kts 84°
2026-04-26 19:21 50.07942 22.09642 1579 ft 128 kts 83°
2026-04-26 19:22 50.08329 22.10697 1721 ft 107 kts 20°
2026-04-26 19:22 50.09004 22.10895 1760 ft 91 kts 358°
2026-04-26 19:22 50.09617 22.10964 1771 ft 88 kts 356°
2026-04-26 19:22 50.10211 22.10944 1705 ft 90 kts 338°
2026-04-26 19:23 50.10662 22.10252 1615 ft 93 kts 296°
2026-04-26 19:23 50.10871 22.09275 1483 ft 96 kts 285°
2026-04-26 19:23 50.10934 22.08252 1373 ft 96 kts 274°
2026-04-26 19:23 50.10931 22.07192 1168 ft 102 kts 270°
2026-04-26 19:24 50.10941 22.06098 999 ft 98 kts 272°
2026-04-26 19:24 50.10949 22.05067 867 ft 93 kts 270°
2026-04-26 19:24 50.10978 22.03148 716 ft 76 kts 272°
2026-04-26 19:25 50.10991 22.02376 803 ft 79 kts 272°
2026-04-26 19:25 50.10998 22.02065 858 ft 90 kts 272°
2026-04-26 19:25 50.10812 22.00389 1305 ft 107 kts 211°
2026-04-26 19:25 50.10045 22.00295 1486 ft 115 kts 182°
2026-04-26 19:26 50.09261 22.00330 1555 ft 110 kts 181°
2026-04-26 19:26 50.08553 22.00643 1528 ft 113 kts 129°
2026-04-26 19:26 50.08411 22.01846 1410 ft 119 kts 89°
2026-04-26 19:26 50.08407 22.03085 1480 ft 110 kts 86°
2026-04-26 19:27 50.08435 22.04271 1508 ft 109 kts 83°
2026-04-26 19:27 50.08469 22.05443 1525 ft 108 kts 85°
2026-04-26 19:27 50.08479 22.06633 1512 ft 111 kts 85°
2026-04-26 19:27 50.08470 22.07836 1521 ft 112 kts 87°
2026-04-26 19:28 50.08445 22.09039 1544 ft 111 kts 88°
2026-04-26 19:28 50.08402 22.10241 1569 ft 111 kts 87°
2026-04-26 19:28 50.08819 22.11168 1488 ft 113 kts 14°
2026-04-26 19:28 50.09587 22.11287 1424 ft 103 kts 358°
2026-04-26 19:29 50.10216 22.11236 1395 ft 86 kts 334°
2026-04-26 19:29 50.10616 22.10590 1371 ft 85 kts 295°
2026-04-26 19:29 50.10807 22.09702 1305 ft 88 kts 283°
2026-04-26 19:29 50.10882 22.08756 1249 ft 88 kts 276°
2026-04-26 19:30 50.10922 22.07793 1171 ft 89 kts 274°
2026-04-26 19:30 50.10934 22.06845 1079 ft 83 kts 274°
2026-04-26 19:30 50.10949 22.06273 998 ft 78 kts 272°
2026-04-26 19:30 50.10952 22.05716 900 ft 78 kts 270°
2026-04-26 19:31 50.10965 22.04429 699 ft 65 kts 273°
2026-04-26 19:31 50.10975 22.03781 691 ft 77 kts 272°
2026-04-26 19:31 50.10986 22.03155 786 ft 94 kts 271°
2026-04-26 19:31 50.11009 22.02129 1176 ft 93 kts 274°
2026-04-26 19:32 50.11016 22.01154 1308 ft 92 kts 271°
2026-04-26 19:32 50.11022 22.00129 1403 ft 95 kts 272°
2026-04-26 19:32 50.10748 21.99194 1402 ft 107 kts 216°
2026-04-26 19:32 50.10005 21.99042 1476 ft 111 kts 179°
2026-04-26 19:33 50.09245 21.99125 1543 ft 109 kts 178°
2026-04-26 19:33 50.08481 21.99309 1520 ft 114 kts 156°
2026-04-26 19:33 50.08216 22.00419 1442 ft 117 kts 84°
2026-04-26 19:33 50.08263 22.01636 1517 ft 110 kts 82°
2026-04-26 19:34 50.08310 22.02807 1575 ft 107 kts 80°
2026-04-26 19:34 50.08380 22.03977 1601 ft 109 kts 78°
2026-04-26 19:34 50.08457 22.05141 1650 ft 108 kts 80°
2026-04-26 19:34 50.08501 22.06321 1677 ft 110 kts 81°
2026-04-26 19:35 50.08525 22.07492 1712 ft 109 kts 79°
2026-04-26 19:35 50.08687 22.08620 1659 ft 109 kts 47°
2026-04-26 19:35 50.09276 22.09266 1625 ft 97 kts
2026-04-26 19:35 50.09895 22.09300 1539 ft 84 kts 351°
2026-04-26 19:36 50.10406 22.08912 1394 ft 83 kts 308°
2026-04-26 19:36 50.10608 22.08420 1337 ft 80 kts 297°
2026-04-26 19:36 50.10855 22.07301 1139 ft 85 kts 283°
2026-04-26 19:36 50.10934 22.06396 1002 ft 85 kts 273°
2026-04-26 19:37 50.10949 22.05510 867 ft 79 kts 270°
2026-04-26 19:37 50.10956 22.04754 790 ft 61 kts 273°
2026-04-26 19:37 50.10970 22.04107 745 ft 59 kts 272°
2026-04-26 19:37 50.10979 22.03463 726 ft 61 kts 272°
2026-04-26 19:38 50.10990 22.02814 702 ft 55 kts 272°
2026-04-26 19:38 50.10997 22.02309 693 ft 45 kts 270°
2026-04-26 19:38 50.11003 22.01776 697 ft 49 kts 272°
2026-04-26 19:38 50.11026 22.01290 700 ft 35 kts 283°
2026-04-26 19:39 50.11103 22.01030 701 ft 17 kts 300°
2026-04-26 19:39 50.11110 22.01013 696 ft 2 kts 310°
2026-04-26 19:39 50.11160 22.00887 699 ft 23 kts 315°
2026-04-26 19:39 50.11270 22.00859 697 ft 0 kts